Regional Weather Roundup
Issued by NWS Cleveland, OH

Home | Current Version | Previous Version | Text Only | Print | Product List | Glossary Off
Versions: 1 2 3 4 5 6 7 8 9 10 11 12 13 14 15 16 17 18 19 20 21 22 23 24 25 26 27 28 29 30 31 32 33 34 35 36 37 38 39 40 41 42 43 44 45 46 47 48 49 50

000
ASUS41 KCLE 182110
RWRCLE
OHIO REGIONAL WEATHER ROUNDUP
NATIONAL WEATHER SERVICE CLEVELAND, OH
400 PM EST SAT NOV 18 2017

NOTE: "FAIR" INDICATES FEW OR NO CLOUDS BELOW 12,000 FEET WITH NO
SIGNIFICANT WEATHER AND/OR OBSTRUCTIONS TO VISIBILITY.

OHZ001>008-015>018-024>027-034-035-043-044-182200-
   NORTHWEST OHIO

CITY           SKY/WX    TMP DP  RH WIND       PRES   REMARKS
DEFIANCE       CLOUDY    47  45  93 N10       29.22R
FINDLAY        HVY RAIN  53  50  89 S10       29.17S FOG
TOLEDO EXPRESS CLOUDY    48  48 100 N13       29.20S
TOLEDO EXEC    CLOUDY    51  50  96 N14       29.20R FOG
LIMA           NOT AVBL
$$

OHZ009>014-019>023-028>033-038-089-182200-
   NORTHEAST OHIO

CITY           SKY/WX    TMP DP  RH WIND       PRES   REMARKS
CLE-HOPKINS    HVY RAIN  53  50  89 S16G25    29.26F FOG
CLE-LAKEFRONT  HVY RAIN  51  48  89 S17       29.23F FOG
CUY CO. ARPT   LGT RAIN  52  50  93 SE15G24   29.22F FOG
LORAIN-ELYRIA  RAIN      52  45  77 S21       29.23S
ASHTABULA      RAIN      48  47  96 S10       29.30F FOG
AKRON-CANTON   CLOUDY    50  45  83 S12       29.28F
WOOSTER        CLOUDY    48  46  93 S7        29.26F
MANSFIELD      HVY RAIN  53  52  96 W15G30    29.27R FOG
YOUNGSTOWN     CLOUDY    49  46  90 SE12      29.30F
$$

OHZ042-051>053-060>062-070>072-077>081-182200-
  SOUTHWEST OHIO

CITY           SKY/WX    TMP DP  RH WIND       PRES   REMARKS
CINC-COVINGTON CLOUDY    64  59  83 S17G31    29.27F
CINC-LUNKEN    CLOUDY    66  58  75 S24G35    29.28F
HAMILTON       LGT RAIN  65  59  81 SW17G26   29.26F
DAYTON         LGT RAIN  62  59  90 S20G28    29.23F
WRIGHT-PAT AFB LGT RAIN  63  61  94 S25G35    29.22F FOG
DAYTON GENERAL CLOUDY    64  56  75 SW22G36   29.24F
WILMINGTON     CLOUDY    63  57  81 SW24G39   29.26F
$$

OHZ036-037-039>041-045>050-054>059-063>069-073>076-082>088-182200-
  CENTRAL AND SOUTHEAST OHIO

CITY           SKY/WX    TMP DP  RH WIND       PRES   REMARKS
COLUMBUS       CLOUDY    63  55  75 S18G30    29.27F
OSU AIRPORT    CLOUDY    63  57  81 SW24G33   29.25F
BOLTON FIELD   CLOUDY    63  55  77 SW22G36   29.27F
RICKENBACK AFB CLOUDY    63  55  76 SW25G36   29.27F
NEWARK         CLOUDY    63  53  70 SW17G23   29.27F
MARION         HVY RAIN  58  55  90 NW16G22   29.24R VSB 3/4
LANCASTER      CLOUDY    65  55  70 SW21G37   29.30F
ZANESVILLE     CLOUDY    63  51  65 S13G23    29.29F
NEW PHILLY     NOT AVBL
$$




USA.gov is the U.S. government's official web portal to all federal, state and local government web resources and services.